Regional Weather Roundup
Issued by NWS

Home | Current Version | Previous Version | Graphics & Text | Print | Product List | Glossary On
Versions: 1 2 3 4 5 6 7 8 9 10 11 12 13 14 15 16 17 18 19 20 21 22 23 24 25 26 27 28 29 30 31 32 33 34 35 36 37 38 39 40 41 42 43 44 45 46 47 48 49 50
000
ASUS45 KABQ 032101
RWRNM
NEW MEXICO REGIONAL WEATHER ROUNDUP
NATIONAL WEATHER SERVICE ALBUQUERQUE NM
300 PM MDT TUE MAY 03 2016

NOTE: "FAIR" MEANS FEW OR NO CLOUDS BELOW 12,000 FEET AGL WITH NO
       SIGNIFICANT WEATHER OR OBSTRUCTIONS TO VISION.

      THIS PRODUCT IS RELEASED AS TWO VERSIONS.  ONE VERSION NEAR
      THE TOP OF THE HOUR CONTAINING PRELIMINARY DATA FROM ALBUQUERQUE
      AND OTHER STATIONS.  A FINAL VERSION WITH ADDITIONAL DATA IS
      ISSUED ABOUT 10 MINUTES AFTER THE HOUR.

NMZ501-503-504-510>518-032200-
NORTHWEST PLATEAU/NORTHCENTRAL MOUNTAINS

CITY           SKY/WX    TMP DP  RH WIND       PRES   REMARKS
FARMINGTON     FAIR      66  28  24 SW7       30.18F
SANTA FE       FAIR      66  22  18 VRB3      30.20S
TAOS           FAIR      63  21  20 N13G18    30.25S

$$
NMZ402-403-502-505>509-032200-
WESTCENTRAL MOUNTAINS/SOUTHWEST MOUNTAINS

CITY           SKY/WX    TMP DP  RH WIND       PRES   REMARKS
GALLUP         FAIR      65  28  24 N8        30.23F
GRANTS         FAIR      64  27  24 NW7G16    30.24S
SILVER CITY      N/A     72  27  18 SE6       30.14F

$$
NMZ407-409-411-412-032200-
SOUTHERN DESERTS

CITY           SKY/WX    TMP DP  RH WIND       PRES   REMARKS
LORDSBURG      FAIR      79  27  14 SE6       30.06S
DEMING         FAIR      79  29  16 E7        30.08F
HOLLOMAN AFB   FAIR      77  25  14 N7        30.08F
ALAMOGORDO     FAIR      77  25  14 NE3G21    30.10S
T OR C         PTSUNNY   74  27  17 E9        30.11F

$$
NMZ519>523-032200-
CENTRAL VALLEYS/CENTRAL HIGHLANDS

CITY           SKY/WX    TMP DP  RH WIND       PRES   REMARKS
ALBUQUERQUE    FAIR      72  23  16 NE5       30.17F
DOUBLE EAGLE   MOSUNNY   68  27  21 W6        30.20
CLINES CORNERS PTSUNNY   60  28  29 VRB5      30.23S
BELEN          FAIR      72  27  19 SW5       30.17F
SOCORRO        NOT AVBL

$$
NMZ524>526-539-540-032200-
SOUTHCENTRAL MOUNTAINS

CITY           SKY/WX    TMP DP  RH WIND       PRES   REMARKS
RUIDOSO        NOT AVBL

$$
NMZ527>531-032200-
NORTHEAST HIGHLANDS/NORTHEAST PLAINS

CITY           SKY/WX    TMP DP  RH WIND       PRES   REMARKS
LAS VEGAS      PTSUNNY   57  30  35 MISG      30.25R
RATON          FAIR      62  25  24 N21G30    30.22S
CLAYTON        FAIR      67  31  26 N22G33    30.15S

$$
NMZ532>537-032200-
EASTCENTRAL PLAINS

CITY           SKY/WX    TMP DP  RH WIND       PRES   REMARKS
TUCUMCARI      FAIR      71  26  18 N8G22     30.13S
CANNON AFB     FAIR      70  34  26 N13G21    30.14R
CLOVIS AIRPORT FAIR      70  39  32 NE16      30.15S

$$
NMZ028-029-538-032200-
SOUTHEAST PLAINS

CITY           SKY/WX    TMP DP  RH WIND       PRES   REMARKS
ROSWELL        FAIR      79  32  18 MISG      30.06F
ARTESIA        FAIR      79  34  19 VRB7G18   30.07S
CARLSBAD       FAIR      81  32  17 N12G17    30.03F
HOBBS          MOSUNNY   77  30  18 SW12      30.07F


$$




USA.gov is the U.S. government's official web portal to all federal, state and local government web resources and services.